CW5391 Weather Reports


Display with metric or nautical units.
time (UTC)temp
F
wind
direction
speed
MPH
gust
MPH
rain 1hr
in
rain 24hr
in
rain mn
in
humidity
%
barometer
mb
20260831053820 63 90 0.0 1.0 0.00 0.00 0.00 92 1015.8
20260831053351 63 90 0.0 1.0 0.00 0.00 0.00 92 1015.8
20260831052819 63 90 0.0 1.0 0.00 0.00 0.00 92 1015.9
20260831052346 63 90 0.0 0.0 0.00 0.00 0.00 92 1015.9
20260831051819 63 90 0.0 0.0 0.00 0.00 0.00 92 1015.9
20260831051323 63 90 0.0 0.0 0.00 0.00 0.00 92 1015.8
20260831050836 64 90 0.0 0.0 0.00 0.00 0.00 92 1015.8
20260831050340 64 90 0.0 0.0 0.00 0.00 0.00 92 1015.8
20260831045829 64 90 0.0 0.0 0.00 0.00 0.00 92 1015.6
20260831045358 64 90 0.0 0.0 0.00 0.00 0.00 92 1015.6
20260831044816 64 90 0.0 0.0 0.00 0.00 0.00 92 1015.6
20260831044352 64 90 0.0 0.0 0.00 0.00 0.00 92 1015.6
20260831043830 64 90 0.0 0.0 0.00 0.00 0.00 92 1015.6
20260831043318 64 90 0.0 0.0 0.00 0.00 0.00 91 1015.6
20260831042815 64 127 0.0 0.0 0.00 0.00 0.00 91 1015.6
20260831042343 64 127 0.0 0.0 0.00 0.00 0.00 91 1015.6
20260831041822 64 127 0.0 0.0 0.00 0.00 0.00 92 1015.6
20260831041331 64 127 0.0 1.0 0.00 0.00 0.00 92 1015.5
20260831040817 64 127 0.0 1.0 0.00 0.00 0.00 91 1015.5
20260831040315 64 127 0.0 1.0 0.00 0.00 0.00 91 1015.5
20260831035838 64 90 0.0 1.0 0.00 0.00 0.00 91 1015.4
20260831035335 64 90 0.0 0.0 0.00 0.00 0.00 91 1015.4
20260831034826 64 90 0.0 1.0 0.00 0.00 0.00 91 1015.4
20260831034318 64 90 0.0 2.0 0.00 0.00 0.00 90 1015.3
20260831033815 64 161 0.0 2.0 0.00 0.00 0.00 90 1015.3
20260831033327 64 134 0.0 1.0 0.00 0.00 0.00 91 1015.3
20260831032814 64 94 0.0 0.0 0.00 0.00 0.00 91 1015.4
20260831032324 64 94 0.0 0.0 0.00 0.00 0.00 91 1015.4
20260831031821 64 94 0.0 0.0 0.00 0.00 0.00 91 1015.4
20260831031345 64 94 0.0 2.0 0.00 0.00 0.00 91 1015.4
20260831030826 64 94 0.0 2.0 0.00 0.00 0.00 91 1015.4
20260831030315 64 144 0.0 2.0 0.00 0.00 0.00 91 1015.4
20260831025841 64 126 0.0 1.0 0.00 0.00 0.00 91 1015.5
20260831025353 64 100 0.0 1.0 0.00 0.00 0.00 91 1015.5
20260831024841 64 100 0.0 2.0 0.00 0.00 0.00 91 1015.5
20260831024322 64 136 0.0 2.0 0.00 0.00 0.00 90 1015.3
20260831023831 65 153 1.0 2.0 0.00 0.00 0.00 89 1015.3
20260831023343 65 122 0.0 2.0 0.00 0.00 0.00 89 1015.3
20260831022819 65 140 0.0 2.0 0.00 0.00 0.00 89 1015.4
20260831022328 65 140 0.0 2.0 0.00 0.00 0.00 90 1015.4
20260831021824 65 171 0.0 2.0 0.00 0.00 0.00 90 1015.4
20260831021328 65 171 0.0 2.0 0.00 0.00 0.00 90 1015.4
20260831020841 65 142 327.0 0.0 0.00 0.00 0.00 90 1015.4
20260831020334 65 142 327.0 0.0 0.00 0.00 0.00 90 1015.4
20260831015826 0 0.0 0.0 0.00 0.00 0.00 1015.3
20260831015314 0 0.0 0.0 0.00 0.00 0.00 1015.3
20260831014822 0 0.0 0.0 0.00 0.00 0.00 1015.3
20260831014327 0 0.0 0.0 0.00 0.00 0.00 1015.0
20260831013843 0 0.0 0.0 0.00 0.00 0.00 1015.0
20260831013315 0 0.0 0.0 0.00 0.00 0.00 1015.0
20260831012831 0 0.0 0.0 0.00 0.00 0.00 1014.9
20260831012317 0 0.0 0.0 0.00 0.00 0.00 1014.9
20260831011819 0 0.0 0.0 0.00 0.00 0.00 1014.9
20260831011324 0 0.0 0.0 0.00 0.00 0.00 1014.6
20260831010355 65 168 1.0 3.0 0.00 0.00 0.00 88 1014.6
20260831005824 65 168 1.0 3.0 0.00 0.00 0.00 88 1014.5
20260831005342 65 132 1.0 2.0 0.00 0.00 0.00 88 1014.5
20260831004821 65 101 1.0 2.0 0.00 0.00 0.00 88 1014.5
20260831004318 65 101 0.0 2.0 0.00 0.00 0.00 87 1014.5
20260831003842 65 101 0.0 3.0 0.00 0.00 0.00 87 1014.5
20260831003317 65 88 0.0 3.0 0.00 0.00 0.00 87 1014.5
20260831002822 66 88 1.0 3.0 0.00 0.00 0.00 87 1014.2
20260831002331 66 88 1.0 3.0 0.00 0.00 0.00 87 1014.2
20260831001846 65 132 1.0 3.0 0.00 0.00 0.00 87 1014.2
20260831001314 65 170 1.0 3.0 0.00 0.00 0.00 87 1013.8
20260831000839 66 139 2.0 3.0 0.00 0.00 0.00 87 1013.8
20260831000330 66 124 1.0 3.0 0.00 0.00 0.00 88 1013.8
20260830235841 66 130 1.0 3.0 0.00 0.00 0.00 87 1013.8
20260830235317 66 102 1.0 3.0 0.00 0.00 0.00 87 1013.8
20260830234829 66 78 1.0 3.0 0.00 0.00 0.00 88 1013.8
20260830234321 66 131 1.0 2.0 0.00 0.00 0.00 87 1013.8
20260830233819 66 129 1.0 3.0 0.00 0.00 0.00 87 1013.8
20260830233404 66 128 1.0 3.0 0.00 0.00 0.00 88 1013.8
20260830232814 66 112 1.0 3.0 0.00 0.00 0.00 89 1013.8
20260830232324 66 116 2.0 4.0 0.00 0.00 0.00 88 1013.8
20260830231829 66 98 2.0 5.0 0.00 0.00 0.00 88 1013.8
20260830231317 67 231 2.0 5.0 0.00 0.00 0.00 88 1013.8
20260830230817 67 128 1.0 5.0 0.00 0.00 0.00 88 1013.8
20260830230328 67 127 1.0 5.0 0.00 0.00 0.00 88 1013.8
20260830225813 67 123 1.0 3.0 0.00 0.00 0.00 87 1013.8
20260830225337 68 101 1.0 10.0 0.00 0.00 0.00 87 1013.8
20260830224816 68 185 2.0 10.0 0.00 0.00 0.00 85 1013.8
20260830224333 68 112 2.0 10.0 0.00 0.00 0.00 85 1013.8
20260830223817 69 80 3.0 8.0 0.00 0.00 0.00 85 1013.8
20260830223329 69 74 3.0 10.0 0.00 0.00 0.00 85 1013.8
20260830222841 69 248 2.0 7.0 0.00 0.00 0.00 84 1013.6
20260830222315 69 149 1.0 3.0 0.00 0.00 0.00 84 1013.6
20260830221842 69 148 1.0 5.0 0.00 0.00 0.00 84 1013.6
20260830221327 69 171 2.0 4.0 0.00 0.00 0.00 84 1013.4
20260830220823 69 134 1.0 5.0 0.00 0.00 0.00 84 1013.4
20260830220337 69 153 1.0 4.0 0.00 0.00 0.00 84 1013.4
20260830215823 69 121 1.0 4.0 0.00 0.00 0.00 84 1013.3
20260830215323 69 175 1.0 5.0 0.00 0.00 0.00 84 1013.3
20260830214829 69 108 1.0 5.0 0.00 0.00 0.00 84 1013.3
20260830214323 69 123 1.0 5.0 0.00 0.00 0.00 85 1013.2
20260830213823 69 132 1.0 5.0 0.00 0.00 0.00 85 1013.2
20260830213314 69 126 1.0 5.0 0.00 0.00 0.00 83 1013.2
20260830212836 69 205 0.0 3.0 0.00 0.00 0.00 85 1013.2
20260830212325 69 158 1.0 4.0 0.00 0.00 0.00 83 1013.2
20260830211840 70 126 2.0 4.0 0.00 0.00 0.00 82 1013.2
20260830211329 70 125 2.0 5.0 0.00 0.00 0.00 81 1013.3
20260830210900 70 131 2.0 5.0 0.00 0.00 0.00 81 1013.3
20260830210321 70 117 2.0 4.0 0.00 0.00 0.00 80 1013.3
20260830205830 71 117 2.0 4.0 0.00 0.00 0.00 78 1013.3
20260830205320 71 175 2.0 5.0 0.00 0.00 0.00 78 1013.3
20260830204826 71 107 2.0 5.0 0.00 0.00 0.00 77 1013.3
20260830204319 71 173 2.0 6.0 0.00 0.00 0.00 78 1013.3
20260830203845 71 140 2.0 6.0 0.00 0.00 0.00 77 1013.3
20260830203337 71 124 1.0 3.0 0.00 0.00 0.00 77 1013.3
20260830202841 71 108 1.0 2.0 0.00 0.00 0.00 76 1013.4
20260830202323 72 100 1.0 4.0 0.00 0.00 0.00 77 1013.4
20260830201817 72 114 1.0 4.0 0.00 0.00 0.00 74 1013.4
20260830201322 72 171 2.0 5.0 0.00 0.00 0.00 74 1013.4
20260830200817 73 119 2.0 5.0 0.00 0.00 0.00 76 1013.4
20260830200332 73 96 2.0 4.0 0.00 0.00 0.00 73 1013.4
20260830195819 74 121 2.0 6.0 0.00 0.00 0.00 72 1013.4
20260830195315 74 133 2.0 7.0 0.00 0.00 0.00 69 1013.4
20260830194827 75 219 2.0 7.0 0.00 0.00 0.00 69 1013.4
20260830194315 75 205 1.0 6.0 0.00 0.00 0.00 69 1013.7
20260830193828 75 250 1.0 5.0 0.00 0.00 0.00 70 1013.7
20260830193326 75 184 1.0 3.0 0.00 0.00 0.00 67 1013.7
20260830192814 75 129 0.0 2.0 0.00 0.00 0.00 72 1013.8
20260830192323 75 192 0.0 4.0 0.00 0.00 0.00 70 1013.8
20260830191837 75 127 1.0 4.0 0.00 0.00 0.00 68 1013.8
20260830191341 76 166 0.0 4.0 0.00 0.00 0.00 67 1014.0
20260830190821 76 267 1.0 6.0 0.00 0.00 0.00 69 1014.0
20260830190316 76 341 2.0 6.0 0.00 0.00 0.00 67 1014.0
20260830185823 76 257 1.0 6.0 0.00 0.00 0.00 67 1014.2
20260830185350 76 185 1.0 6.0 0.00 0.00 0.00 66 1014.2
20260830184901 76 179 2.0 7.0 0.00 0.00 0.00 66 1014.2
20260830184322 76 204 2.0 7.0 0.00 0.00 0.00 66 1014.3
20260830183819 75 179 2.0 6.0 0.00 0.00 0.00 70 1014.3
20260830183327 75 194 2.0 5.0 0.00 0.00 0.00 68 1014.3
20260830182817 75 137 0.0 5.0 0.00 0.00 0.00 73 1014.4
20260830182318 75 34 1.0 6.0 0.00 0.00 0.00 70 1014.4
20260830181823 75 215 2.0 6.0 0.00 0.00 0.00 67 1014.4
20260830181339 75 92 2.0 6.0 0.00 0.00 0.00 69 1014.7
20260830180902 75 284 1.0 7.0 0.00 0.00 0.00 70 1014.7
20260830180313 75 51 1.0 6.0 0.00 0.00 0.00 68 1014.7
20260830175820 75 193 1.0 6.0 0.00 0.00 0.00 73 1014.8
20260830175329 74 134 0.0 4.0 0.00 0.00 0.00 75 1014.8
20260830174815 74 132 1.0 4.0 0.00 0.00 0.00 72 1014.8
20260830174319 74 178 1.0 4.0 0.00 0.00 0.00 72 1014.8
20260830173823 74 36 1.0 4.0 0.00 0.00 0.00 71 1014.8
20260830173327 74 125 1.0 3.0 0.00 0.00 0.00 68 1014.8
20260830172840 74 179 0.0 2.0 0.00 0.00 0.00 69 1014.9
20260830172328 74 30 0.0 6.0 0.00 0.00 0.00 70 1014.9
20260830171837 74 153 0.0 6.0 0.00 0.00 0.00 72 1014.9
20260830171347 73 138 1.0 6.0 0.00 0.00 0.00 69 1015.3
20260830170817 73 11 1.0 6.0 0.00 0.00 0.00 65 1015.3
20260830170325 74 133 1.0 4.0 0.00 0.00 0.00 67 1015.3
20260830165832 74 355 1.0 5.0 0.00 0.00 0.00 67 1015.3
20260830165329 74 183 1.0 4.0 0.00 0.00 0.00 68 1015.3
20260830164814 74 182 0.0 4.0 0.00 0.00 0.00 67 1015.3
20260830164318 74 114 0.0 5.0 0.00 0.00 0.00 67 1015.5
20260830163844 74 344 1.0 5.0 0.00 0.00 0.00 67 1015.5
20260830163333 74 101 1.0 5.0 0.00 0.00 0.00 64 1015.5
20260830162817 74 327 0.0 3.0 0.00 0.00 0.00 70 1015.5
20260830162347 74 97 0.0 3.0 0.00 0.00 0.00 68 1015.5
20260830161836 74 121 1.0 4.0 0.00 0.00 0.00 64 1015.5
20260830161325 74 115 1.0 4.0 0.00 0.00 0.00 69 1015.9
20260830160833 75 107 0.0 4.0 0.00 0.00 0.00 67 1015.9
20260830160327 75 221 1.0 4.0 0.00 0.00 0.00 66 1015.9
20260830155812 74 191 1.0 3.0 0.00 0.00 0.00 69 1016.0
20260830155317 74 296 1.0 3.0 0.00 0.00 0.00 71 1016.0
20260830154823 74 165 0.0 4.0 0.00 0.00 0.00 68 1016.0
20260830154332 73 42 1.0 4.0 0.00 0.00 0.00 70 1015.9
20260830153812 73 142 0.0 5.0 0.00 0.00 0.00 75 1015.9
20260830153318 73 95 2.0 5.0 0.00 0.00 0.00 75 1015.9
20260830152828 73 186 2.0 4.0 0.00 0.00 0.00 72 1016.0
20260830152334 72 208 2.0 4.0 0.00 0.00 0.00 72 1016.0
20260830151824 72 270 1.0 5.0 0.00 0.00 0.00 73 1016.0
20260830151310 72 140 1.0 5.0 0.00 0.00 0.00 73 1016.4
20260830150842 72 44 2.0 5.0 0.00 0.00 0.00 75 1016.4
20260830150326 71 249 2.0 5.0 0.00 0.00 0.00 72 1016.4
20260830145827 70 184 1.0 5.0 0.00 0.00 0.00 75 1016.4
20260830145320 69 74 2.0 5.0 0.00 0.00 0.00 77 1016.4
20260830144815 69 121 2.0 4.0 0.00 0.00 0.00 78 1016.4
20260830144334 68 101 2.0 5.0 0.00 0.00 0.00 79 1015.9
20260830143829 68 127 1.0 5.0 0.00 0.00 0.00 78 1015.9
20260830143314 68 213 0.0 3.0 0.00 0.00 0.00 78 1015.9
20260830142821 68 117 1.0 3.0 0.00 0.00 0.00 76 1016.4
20260830142318 68 160 0.0 1.0 0.00 0.00 0.00 77 1016.4
20260830141827 68 171 0.0 3.0 0.00 0.00 0.00 76 1016.4
20260830141319 68 202 1.0 3.0 0.00 0.00 0.00 74 1016.6
20260830140828 68 117 0.0 5.0 0.00 0.00 0.00 76 1016.6
20260830140324 68 130 1.0 9.0 0.00 0.00 0.00 73 1016.6
20260830135826 69 212 1.0 9.0 0.00 0.00 0.00 72 1016.7
20260830135319 69 159 1.0 9.0 0.00 0.00 0.00 73 1016.7
20260830134848 70 108 2.0 7.0 0.00 0.00 0.00 74 1016.7
20260830134334 70 174 2.0 7.0 0.00 0.00 0.00 74 1016.6
20260830133823 69 186 3.0 8.0 0.00 0.00 0.00 76 1016.6
20260830133321 69 121 2.0 7.0 0.00 0.00 0.00 75 1016.6
20260830132842 69 124 2.0 7.0 0.00 0.00 0.00 74 1016.5
20260830132338 69 109 3.0 7.0 0.00 0.00 0.00 74 1016.5
20260830131829 68 126 2.0 8.0 0.00 0.00 0.00 79 1016.5
20260830131344 68 146 3.0 8.0 0.00 0.00 0.00 77 1016.6
20260830130816 67 117 3.0 8.0 0.00 0.00 0.00 77 1016.6
20260830130320 67 229 2.0 6.0 0.00 0.00 0.00 77 1016.6
20260830125825 66 157 1.0 6.0 0.00 0.00 0.00 80 1016.9
20260830125341 66 194 2.0 5.0 0.00 0.00 0.00 79 1016.9
20260830124820 66 118 0.0 4.0 0.00 0.00 0.00 79 1016.9
20260830124324 66 130 1.0 4.0 0.00 0.00 0.00 82 1016.7
20260830123835 66 148 1.0 3.0 0.00 0.00 0.00 79 1016.7
20260830123328 66 152 1.0 3.0 0.00 0.00 0.00 81 1016.7
20260830122846 66 137 0.0 3.0 0.00 0.00 0.00 83 1016.7
20260830122321 66 182 1.0 3.0 0.00 0.00 0.00 81 1016.7
20260830121829 66 131 1.0 5.0 0.00 0.00 0.00 81 1016.7
20260830121334 66 134 1.0 5.0 0.00 0.00 0.00 78 1016.6
20260830120839 65 136 1.0 3.0 0.00 0.00 0.00 80 1016.6
20260830120333 65 127 0.0 3.0 0.00 0.00 0.00 81 1016.6
20260830115819 65 127 1.0 4.0 0.00 0.00 0.00 82 1016.5
20260830115336 65 234 1.0 8.0 0.00 0.00 0.00 81 1016.5
20260830114826 64 204 2.0 6.0 0.00 0.00 0.00 81 1016.5
20260830114334 64 185 1.0 4.0 0.00 0.00 0.00 81 1016.7
20260830113814 64 167 1.0 4.0 0.00 0.00 0.00 82 1016.7
20260830113319 64 98 1.0 3.0 0.00 0.00 0.00 82 1016.7
20260830112821 63 126 1.0 9.0 0.00 0.00 0.00 82 1016.9
20260830112347 63 109 2.0 9.0 0.00 0.00 0.00 82 1016.9
20260830111837 63 169 2.0 9.0 0.00 0.00 0.00 82 1016.9
20260830111329 62 168 2.0 5.0 0.00 0.00 0.00 82 1016.9
20260830110829 61 196 1.0 3.0 0.00 0.00 0.00 83 1016.9
20260830110321 61 146 1.0 2.0 0.00 0.00 0.00 85 1016.9
20260830105827 61 134 0.0 3.0 0.00 0.00 0.00 84 1016.9
20260830105333 60 138 1.0 3.0 0.00 0.00 0.00 86 1016.9
20260830104830 60 203 0.0 3.0 0.00 0.00 0.00 84 1016.9
20260830104324 60 93 0.0 3.0 0.00 0.00 0.00 84 1017.0
20260830103817 61 296 0.0 1.0 0.00 0.00 0.00 82 1017.0
20260830103335 61 296 0.0 2.0 0.00 0.00 0.00 82 1017.0
20260830102846 61 215 0.0 5.0 0.00 0.00 0.00 82 1016.9
20260830102317 61 215 1.0 5.0 0.00 0.00 0.00 81 1016.9
20260830101844 61 161 1.0 5.0 0.00 0.00 0.00 82 1016.9
20260830101316 62 146 0.0 2.0 0.00 0.00 0.00 82 1017.0
20260830100821 62 56 0.0 1.0 0.00 0.00 0.00 81 1017.0
20260830100346 62 53 0.0 3.0 0.00 0.00 0.00 80 1017.0
20260830095818 62 53 0.0 3.0 0.00 0.00 0.00 81 1016.9
20260830095329 62 139 0.0 7.0 0.00 0.00 0.00 79 1016.9
20260830094900 62 196 1.0 7.0 0.00 0.00 0.00 79 1016.9
20260830094340 62 69 1.0 5.0 0.00 0.00 0.00 79 1017.0
20260830093830 62 215 1.0 4.0 0.00 0.00 0.00 80 1017.0
20260830093337 62 167 1.0 4.0 0.00 0.00 0.00 80 1017.0
20260830092815 61 165 1.0 4.0 0.00 0.00 0.00 82 1016.9
20260830092323 61 154 1.0 3.0 0.00 0.00 0.00 83 1016.9
20260830091836 60 123 1.0 5.0 0.00 0.00 0.00 82 1016.9
20260830091323 60 147 1.0 5.0 0.00 0.00 0.00 88 1017.1
20260830090823 59 131 1.0 5.0 0.00 0.00 0.00 88 1017.1
20260830090320 59 181 0.0 3.0 0.00 0.00 0.00 88 1017.1
20260830085826 59 213 0.0 3.0 0.00 0.00 0.00 87 1017.1
20260830085335 59 190 0.0 4.0 0.00 0.00 0.00 88 1017.1
20260830084815 59 72 1.0 6.0 0.00 0.00 0.00 87 1017.1
20260830084353 59 183 1.0 6.0 0.00 0.00 0.00 86 1017.0
20260830083831 59 123 0.0 2.0 0.00 0.00 0.00 86 1017.0
20260830083320 60 315 0.0 1.0 0.00 0.00 0.00 86 1017.0
20260830082836 60 271 0.0 0.0 0.00 0.00 0.00 86 1017.0
20260830082321 61 271 0.0 0.0 0.00 0.00 0.00 86 1017.0
20260830081832 60 271 0.0 4.0 0.00 0.00 0.00 84 1017.0
20260830081318 61 271 0.0 4.0 0.00 0.00 0.00 84 1017.0
20260830080814 61 63 0.0 4.0 0.00 0.00 0.00 84 1017.0
20260830080401 61 245 0.0 3.0 0.00 0.00 0.00 85 1017.0
20260830075818 61 149 1.0 4.0 0.00 0.00 0.00 84 1017.1
20260830075324 60 175 1.0 4.0 0.00 0.00 0.00 83 1017.1
20260830074827 60 176 1.0 3.0 0.00 0.00 0.00 84 1017.1
20260830074314 60 161 1.0 3.0 0.00 0.00 0.00 85 1017.1
20260830073820 59 169 1.0 3.0 0.00 0.00 0.00 88 1017.1
20260830073331 58 198 1.0 4.0 0.00 0.00 0.00 89 1017.1
20260830072816 58 233 1.0 4.0 0.00 0.00 0.00 90 1017.2
20260830072318 58 158 0.0 3.0 0.00 0.00 0.00 88 1017.2
20260830071828 58 235 0.0 1.0 0.00 0.00 0.00 89 1017.2
20260830071313 58 238 0.0 2.0 0.00 0.00 0.00 89 1017.0
20260830070844 58 149 0.0 2.0 0.00 0.00 0.00 88 1017.0
20260830070333 58 81 0.0 1.0 0.00 0.00 0.00 88 1017.0
20260830065836 58 248 0.0 0.0 0.00 0.00 0.00 88 1017.0
20260830065338 58 225 0.0 0.0 0.00 0.00 0.00 88 1017.0
20260830064826 58 225 0.0 0.0 0.00 0.00 0.00 87 1017.0
20260830064320 59 225 0.0 3.0 0.00 0.00 0.00 87 1017.2
20260830063829 59 225 0.0 3.0 0.00 0.00 0.00 86 1017.2
20260830063327 58 162 0.0 3.0 0.00 0.00 0.00 86 1017.2
20260830062821 58 189 0.0 1.0 0.00 0.00 0.00 88 1017.3
20260830062313 58 189 0.0 0.0 0.00 0.00 0.00 88 1017.3
20260830061841 58 189 0.0 0.0 0.00 0.00 0.00 88 1017.3
20260830061328 58 189 0.0 0.0 0.00 0.00 0.00 89 1017.4
20260830060900 58 189 0.0 0.0 0.00 0.00 0.00 89 1017.4
20260830060320 58 189 0.0 0.0 0.00 0.00 0.00 87 1017.4
20260830055814 58 189 0.0 0.0 0.00 0.00 0.00 89 1017.5
20260830055338 58 189 0.0 0.0 0.00 0.00 0.00 89 1017.5
20260830054818 58 189 0.0 0.0 0.00 0.00 0.00 89 1017.5
20260830054328 58 189 0.0 1.0 0.00 0.00 0.00 89 1017.4